When you browse on this site, cookies collect data to enhance your experience and personalize the content and advertising you see.
Visit our Privacy Policy to learn more. By continuing to use the site, you agree to this use of cookies and data.
  • In United Kingdom
  • List of Countries
  • For 7 days
  • Water Temperature
  • Satellite Maps
  • Weather Map
  • Weather Widgets
  • user-avatar
    Login

    Hourly Weather Balho

    Today, 24 March, Sunday

    Time Temperature Precipitation Wind Pressure Humidity
    00:00 +32°C° 0 mm 4 mps 735 mmHg 53%
    01:00 +30°C° 0 mm 4 mps 735 mmHg 55%
    02:00 +30°C° 0 mm 4 mps 734 mmHg 58%
    03:00 +29°C° 0 mm 4 mps 734 mmHg 61%
    04:00 +29°C° 0 mm 4 mps 734 mmHg 63%
    05:00 +28°C° 0 mm 4 mps 734 mmHg 65%
    06:00 +28°C° 0 mm 4 mps 734 mmHg 67%
    07:00 +29°C° 0 mm 4 mps 735 mmHg 60%
    08:00 +32°C° 0 mm 4 mps 735 mmHg 54%
    09:00 +33°C° 0 mm 5 mps 735 mmHg 47%
    10:00 +35°C° 0 mm 5 mps 735 mmHg 42%
    11:00 +36°C° 0 mm 6 mps 735 mmHg 36%
    12:00 +39°C° 0 mm 7 mps 734 mmHg 30%
    13:00 +40°C° 0 mm 7 mps 734 mmHg 30%
    14:00 +40°C° 0 mm 6 mps 733 mmHg 29%
    15:00 +41°C° 0 mm 6 mps 732 mmHg 28%
    16:00 +40°C° 0 mm 6 mps 732 mmHg 30%
    17:00 +39°C° 0 mm 6 mps 732 mmHg 32%
    18:00 +38°C° 0 mm 6 mps 732 mmHg 34%
    19:00 +36°C° 0 mm 5 mps 732 mmHg 40%
    20:00 +35°C° 0 mm 5 mps 732 mmHg 45%
    21:00 +33°C° 0 mm 5 mps 733 mmHg 50%
    22:00 +33°C° 0 mm 5 mps 733 mmHg 53%
    23:00 +32°C° 0 mm 5 mps 733 mmHg 56%

    Tomorrow, 25 March, Monday

    Time Temperature Precipitation Wind Pressure Humidity
    00:00 +30°C° 0 mm 5 mps 733 mmHg 59%
    01:00 +30°C° 0 mm 5 mps 733 mmHg 61%
    02:00 +30°C° 0 mm 5 mps 732 mmHg 63%
    03:00 +29°C° 0 mm 5 mps 732 mmHg 65%
    04:00 +29°C° 0 mm 5 mps 732 mmHg 67%
    05:00 +29°C° 0 mm 5 mps 732 mmHg 68%
    06:00 +28°C° 0 mm 5 mps 733 mmHg 70%
    07:00 +30°C° 0 mm 6 mps 733 mmHg 63%
    08:00 +32°C° 0 mm 7 mps 734 mmHg 56%
    09:00 +34°C° 0 mm 8 mps 734 mmHg 50%
    10:00 +35°C° 0 mm 8 mps 734 mmHg 45%
    11:00 +38°C° 0 mm 8 mps 734 mmHg 39%
    12:00 +39°C° 0 mm 8 mps 734 mmHg 34%
    13:00 +40°C° 0 mm 8 mps 733 mmHg 33%
    14:00 +40°C° 0 mm 7 mps 732 mmHg 32%
    15:00 +41°C° 0 mm 6 mps 732 mmHg 31%
    16:00 +40°C° 0 mm 6 mps 731 mmHg 34%
    17:00 +39°C° 0 mm 6 mps 731 mmHg 36%
    18:00 +38°C° 0 mm 6 mps 731 mmHg 38%
    19:00 +36°C° 0 mm 6 mps 732 mmHg 43%
    20:00 +35°C° 0 mm 6 mps 732 mmHg 48%
    21:00 +33°C° 0 mm 5 mps 733 mmHg 53%
    22:00 +33°C° 0 mm 5 mps 733 mmHg 55%
    23:00 +32°C° 0 mm 5 mps 733 mmHg 57%

    Day after tomorrow, 26 March, Tuesday

    Time Temperature Precipitation Wind Pressure Humidity
    00:00 +32°C° 0 mm 5 mps 734 mmHg 60%
    01:00 +30°C° 0 mm 5 mps 733 mmHg 61%
    02:00 +30°C° 0 mm 5 mps 733 mmHg 62%
    03:00 +30°C° 0 mm 4 mps 733 mmHg 64%
    04:00 +29°C° 0 mm 4 mps 733 mmHg 65%
    05:00 +29°C° 0 mm 3 mps 733 mmHg 66%
    06:00 +29°C° 0 mm 3 mps 734 mmHg 67%
    07:00 +30°C° 0 mm 4 mps 734 mmHg 60%
    08:00 +32°C° 0 mm 4 mps 735 mmHg 53%
    09:00 +34°C° 0 mm 5 mps 736 mmHg 46%
    10:00 +35°C° 0 mm 5 mps 736 mmHg 41%
    11:00 +37°C° 0 mm 5 mps 736 mmHg 37%
    12:00 +39°C° 0 mm 6 mps 736 mmHg 33%
    13:00 +40°C° 0 mm 5 mps 735 mmHg 32%
    14:00 +40°C° 0 mm 4 mps 734 mmHg 32%
    15:00 +40°C° 0 mm 3 mps 734 mmHg 31%
    16:00 +40°C° 0 mm 3 mps 734 mmHg 31%
    17:00 +40°C° 0 mm 3 mps 734 mmHg 31%
    18:00 +40°C° 0 mm 3 mps 734 mmHg 32%
    19:00 +38°C° 0 mm 4 mps 735 mmHg 38%
    20:00 +37°C° 0 mm 4 mps 736 mmHg 44%
    21:00 +36°C° 0 mm 5 mps 737 mmHg 50%
    22:00 +35°C° 0 mm 4 mps 737 mmHg 52%
    23:00 +34°C° 0 mm 4 mps 737 mmHg 54%

    27 March, Wednesday

    Time Temperature Precipitation Wind Pressure Humidity
    00:00 +33°C° 0 mm 3 mps 737 mmHg 56%
    01:00 +33°C° 0 mm 3 mps 737 mmHg 57%
    02:00 +31°C° 0 mm 2 mps 736 mmHg 59%
    03:00 +31°C° 0 mm 2 mps 736 mmHg 61%
    04:00 +31°C° 0 mm 2 mps 736 mmHg 62%
    05:00 +30°C° 0 mm 2 mps 737 mmHg 64%
    06:00 +30°C° 0 mm 2 mps 737 mmHg 66%
    07:00 +30°C° 0 mm 2 mps 738 mmHg 63%
    08:00 +31°C° 0 mm 2 mps 739 mmHg 60%
    09:00 +32°C° 0 mm 2 mps 740 mmHg 57%
    10:00 +34°C° 0 mm 2 mps 739 mmHg 50%
    11:00 +36°C° 0 mm 2 mps 739 mmHg 43%
    12:00 +37°C° 0 mm 2 mps 739 mmHg 37%
    13:00 +38°C° 0 mm 2 mps 738 mmHg 34%
    14:00 +39°C° 0 mm 2 mps 737 mmHg 31%
    15:00 +40°C° 0 mm 2 mps 736 mmHg 28%
    16:00 +40°C° 0 mm 3 mps 736 mmHg 29%
    17:00 +40°C° 0 mm 4 mps 737 mmHg 30%
    18:00 +40°C° 0 mm 5 mps 737 mmHg 31%
    19:00 +39°C° 0 mm 5 mps 737 mmHg 34%
    20:00 +37°C° 0 mm 5 mps 738 mmHg 37%
    21:00 +35°C° 0 mm 4 mps 738 mmHg 40%
    22:00 +35°C° 0 mm 4 mps 738 mmHg 42%
    23:00 +34°C° 0 mm 3 mps 738 mmHg 44%

    28 March, Thursday

    Time Temperature Precipitation Wind Pressure Humidity
    00:00 +34°C° 0 mm 3 mps 738 mmHg 45%
    01:00 +33°C° 0 mm 3 mps 738 mmHg 49%
    02:00 +33°C° 0 mm 3 mps 737 mmHg 52%
    03:00 +31°C° 0 mm 3 mps 737 mmHg 56%
    04:00 +30°C° 0 mm 3 mps 737 mmHg 59%
    05:00 +30°C° 0 mm 3 mps 738 mmHg 63%
    06:00 +29°C° 0 mm 3 mps 738 mmHg 66%
    07:00 +30°C° 0 mm 2 mps 739 mmHg 63%
    08:00 +31°C° 0 mm 2 mps 740 mmHg 60%
    09:00 +31°C° 0 mm 2 mps 740 mmHg 57%
    10:00 +34°C° 0 mm 2 mps 740 mmHg 51%
    11:00 +35°C° 0 mm 2 mps 739 mmHg 45%
    12:00 +37°C° 0 mm 2 mps 739 mmHg 39%
    13:00 +37°C° 0 mm 2 mps 738 mmHg 37%
    14:00 +38°C° 0 mm 2 mps 737 mmHg 35%
    15:00 +38°C° 0 mm 3 mps 736 mmHg 34%
    16:00 +38°C° 0 mm 3 mps 736 mmHg 35%
    17:00 +38°C° 0 mm 4 mps 736 mmHg 37%
    18:00 +37°C° 0 mm 5 mps 737 mmHg 39%
    19:00 +36°C° 0 mm 4 mps 737 mmHg 44%
    20:00 +35°C° 0 mm 4 mps 737 mmHg 49%
    21:00 +34°C° 0 mm 4 mps 737 mmHg 54%
    22:00 +34°C° 0 mm 3 mps 737 mmHg 55%
    23:00 +33°C° 0 mm 3 mps 737 mmHg 56%

    29 March, Friday

    Time Temperature Precipitation Wind Pressure Humidity
    00:00 +32°C° 0 mm 2 mps 737 mmHg 58%
    01:00 +32°C° 0 mm 2 mps 736 mmHg 58%
    02:00 +31°C° 0 mm 2 mps 736 mmHg 59%
    03:00 +31°C° 0 mm 2 mps 736 mmHg 59%
    04:00 +31°C° 0 mm 2 mps 736 mmHg 61%
    05:00 +30°C° 0 mm 2 mps 737 mmHg 62%
    06:00 +30°C° 0 mm 2 mps 737 mmHg 64%
    07:00 +31°C° 0 mm 2 mps 738 mmHg 59%
    08:00 +31°C° 0 mm 2 mps 738 mmHg 55%
    09:00 +32°C° 0 mm 2 mps 739 mmHg 51%
    10:00 +35°C° 0 mm 3 mps 738 mmHg 45%
    11:00 +36°C° 0 mm 3 mps 737 mmHg 39%
    12:00 +38°C° 0 mm 3 mps 737 mmHg 33%
    13:00 +39°C° 0 mm 3 mps 736 mmHg 30%
    14:00 +39°C° 0 mm 3 mps 735 mmHg 28%
    15:00 +41°C° 0 mm 4 mps 734 mmHg 26%
    16:00 +41°C° 0 mm 4 mps 734 mmHg 26%
    17:00 +41°C° 0 mm 4 mps 734 mmHg 26%
    18:00 +41°C° 0 mm 5 mps 735 mmHg 26%
    19:00 +39°C° 0 mm 5 mps 735 mmHg 30%
    20:00 +38°C° 0 mm 6 mps 735 mmHg 33%
    21:00 +35°C° 0 mm 6 mps 735 mmHg 37%
    22:00 +35°C° 0 mm 5 mps 735 mmHg 39%
    23:00 +34°C° 0 mm 5 mps 735 mmHg 42%
    Show more